カタログに戻る

GOES 3

運用中気象GEO
NORAD 10953·PAYLOAD·🇺🇸 United States

打ち上げ Jun 16, 1978 から Cape Canaveral Space Force Station

Loading…

TLE

最新Source: Space-Track

元期: Sep 14, 2026, 12:02 UTC

1 10953U 78062A   26257.50142086  .00000057  00000-0  00000-0 0  9991
2 10953   6.7070 298.7994 0002357 297.9084 179.4077  0.99358494129428

AllMySatでGOES 3をリアルタイム追跡

Download on the App Store